Weather History for North Platte, NE

Change the Weather History Date:

Tuesday, October 18, 2011

  Actual Average Record
Temperature  
Mean Temperature 44 °F 48 °F  
Max Temperature 57 °F 64 °F 89 °F (1927)
Min Temperature 30 °F 33 °F 18 °F (1917)
Degree Days  
Heating Degree Days 21 17  
Month to date heating degree days 159 244  
Since 1 July heating degree days 334 415  
Cooling Degree Days 0 0  
Month to date cooling degree days 17 0  
Year to date cooling degree days 921 765  
Moisture  
Dew Point 29 °F    
Average Humidity 64    
Maximum Humidity 100    
Minimum Humidity 28    
Precipitation  
Precipitation 0.00 in 0.06 in 0.86 in (1904)
Month to date precipitation 1.90 0.97  
Year to date precipitation 23.00 18.60  
Snow  
Snow 0.00 in 0.10 in 1.20 in (1916)
Month to date snowfall 0.0 0.9  
Since 1 July snowfall 0.0 1.1  
Since 1 September snowfall 0.0 1.1  
Snow Depth 0.00 in    
Sea Level Pressure  
Sea Level Pressure 30.25 in    
Wind  
Wind Speed 10 mph (NW)    
Max Wind Speed 25 mph    
Max Gust Speed 33 mph    
Visibility 10 miles    
Events      
T = Trace of Precipitation, MM = Missing Value Source: NWS Daily Summary

Daily Weather History Graph

Daily Weather History Graph

Search for Another Location

Airport:

Trip Planner

Search our weather history database for the weather conditions in past years. The results will help you decide how hot, cold, wet, or windy it might be!

Date:

Astronomy

Oct. 18, 2011 Rise Set
Actual Time 7:57 AM CDT 6:57 PM CDT
Civil Twilight 7:29 AM CDT 7:25 PM CDT
Nautical Twilight 6:57 AM CDT 7:57 PM CDT
Astronomical Twilight 6:25 AM CDT 8:29 PM CDT
Moon 11:39 PM CDT (10/18) 1:51 PM CDT (10/18)
Length of Visible Light 11h 56m
Length of Day
11h 00m
Waning Gibbous, 64% of the Moon is Illuminated
Oct 18
Waning Gibbous
Oct 19
Last Quarter
Oct 26
New
Nov 2
First Quarter
Nov 10
Full

Hourly Weather History & Observations

Time (CDT) Temp. Windchill Dew Point Humidity Pressure Visibility Wind Dir Wind Speed Gust Speed Precip Events Conditions
12:53 AM 34.0 °F 27.2 °F 32.0 °F 92% 30.21 in 10.0 mi WNW 8.1 mph - N/A   Clear
1:53 AM 30.0 °F 25.2 °F 28.9 °F 96% 30.21 in 10.0 mi NW 4.6 mph - N/A   Clear
2:53 AM 30.9 °F 25.2 °F 30.0 °F 96% 30.22 in 10.0 mi NW 5.8 mph - N/A   Clear
3:53 AM 30.9 °F 25.2 °F 30.0 °F 96% 30.23 in 10.0 mi NW 5.8 mph - N/A   Clear
4:53 AM 32.0 °F 26.4 °F 30.0 °F 92% 30.24 in 10.0 mi NW 5.8 mph - N/A   Clear
5:53 AM 32.0 °F 27.5 °F 30.0 °F 92% 30.25 in 10.0 mi NW 4.6 mph - N/A   Clear
6:53 AM 30.9 °F 24.3 °F 28.9 °F 92% 30.27 in 10.0 mi NW 6.9 mph - N/A   Clear
7:53 AM 30.9 °F 23.5 °F 28.9 °F 92% 30.30 in 10.0 mi NW 8.1 mph - N/A   Clear
8:53 AM 36.0 °F 29.0 °F 32.0 °F 86% 30.31 in 10.0 mi WNW 9.2 mph - N/A   Partly Cloudy
9:53 AM 41.0 °F 34.7 °F 35.1 °F 79% 30.32 in 10.0 mi WNW 10.4 mph - N/A   Clear
10:53 AM 46.9 °F - 33.1 °F 59% 30.31 in 10.0 mi NNW 15.0 mph 26.5 mph N/A   Clear
11:53 AM 50.0 °F - 32.0 °F 50% 30.30 in 10.0 mi NNW 19.6 mph 27.6 mph N/A   Clear
12:53 PM 54.0 °F - 30.9 °F 41% 30.29 in 10.0 mi North 16.1 mph 26.5 mph N/A   Clear
1:53 PM 55.9 °F - 28.9 °F 36% 30.27 in 10.0 mi NNW 17.3 mph 32.2 mph N/A   Clear
2:53 PM 57.0 °F - 27.0 °F 32% 30.25 in 10.0 mi NNW 15.0 mph 26.5 mph N/A   Clear
3:53 PM 57.2 °F - 26.6 °F 31% 30.20 in 10.0 mi NNW 20.7 mph 27.6 mph N/A   Clear
4:53 PM 57.0 °F - 25.0 °F 29% 30.21 in 10.0 mi NNW 15.0 mph 31.1 mph N/A   Clear
5:53 PM 55.0 °F - 25.0 °F 31% 30.21 in 10.0 mi NNW 15.0 mph - N/A   Clear
6:53 PM 51.1 °F - 26.1 °F 38% 30.21 in 10.0 mi NNW 8.1 mph - N/A   Clear
7:53 PM 39.9 °F 35.8 °F 28.0 °F 63% 30.24 in 10.0 mi WNW 5.8 mph - N/A   Clear
8:53 PM 33.1 °F 26.1 °F 28.0 °F 82% 30.25 in 10.0 mi NW 8.1 mph - N/A   Clear
9:53 PM 34.0 °F 28.0 °F 28.0 °F 79% 30.24 in 10.0 mi NW 6.9 mph - N/A   Clear
10:53 PM 33.8 °F 26.4 °F 28.4 °F 81% 30.20 in 10.0 mi NW 9.2 mph - N/A   Clear
11:53 PM 33.1 °F 26.1 °F 28.0 °F 82% 30.24 in 10.0 mi NW 8.1 mph - N/A   Clear